Time,TemperatureF,DewpointF,PressureIn,WindDirection,WindDirectionDegrees,WindSpeedMPH,WindSpeedGustMPH,Humidity,HourlyPrecipIn,Conditions,Clouds,dailyrainin,SoftwareType,DateUTC
2013-03-12 00:02:00,23.0,17.0,29.80,West,270,5.0,8.0,79,0.00,,,0.01,,2013-03-12 05:02:00,
2013-03-12 00:12:00,23.0,17.0,29.80,West,270,5.0,8.0,79,0.00,,,0.01,,2013-03-12 05:12:00,
2013-03-12 00:22:00,22.0,17.0,29.80,West,274,4.0,8.0,80,0.00,,,0.01,,2013-03-12 05:22:00,
2013-03-12 00:32:00,22.0,17.0,29.80,West,275,5.0,7.0,80,0.00,,,0.01,,2013-03-12 05:32:00,
2013-03-12 00:42:00,22.0,17.0,29.80,West,275,5.0,7.0,80,0.00,,,0.01,,2013-03-12 05:42:00,
2013-03-12 00:52:00,22.0,17.0,29.80,West,266,5.0,8.0,80,0.00,,,0.00,,2013-03-12 05:52:00,
2013-03-12 01:02:00,21.0,16.0,29.79,West,269,6.0,10.0,80,0.00,,,0.00,,2013-03-12 06:02:00,
2013-03-12 01:12:00,21.0,16.0,29.79,West,269,6.0,10.0,80,0.00,,,0.00,,2013-03-12 06:12:00,
2013-03-12 01:22:00,21.0,16.0,29.79,West,264,5.0,8.0,81,0.00,,,0.00,,2013-03-12 06:22:00,
2013-03-12 01:42:00,20.0,15.0,29.79,West,264,5.0,9.0,82,0.00,,,0.00,,2013-03-12 06:42:00,
2013-03-12 01:52:00,20.0,15.0,29.79,West,267,5.0,8.0,82,0.00,,,0.00,,2013-03-12 06:52:00,
2013-03-12 02:02:00,19.0,15.0,29.79,West,264,4.0,7.0,83,0.00,,,0.00,,2013-03-12 07:02:00,
2013-03-12 02:12:00,19.0,15.0,29.79,West,264,4.0,7.0,83,0.00,,,0.00,,2013-03-12 07:12:00,
2013-03-12 02:22:00,19.0,15.0,29.79,West,268,3.0,6.0,84,0.00,,,0.00,,2013-03-12 07:22:00,
2013-03-12 02:32:00,19.0,15.0,29.79,West,274,4.0,7.0,85,0.00,,,0.00,,2013-03-12 07:32:00,
2013-03-12 02:42:00,19.0,15.0,29.79,West,274,4.0,7.0,85,0.00,,,0.00,,2013-03-12 07:42:00,
2013-03-12 02:52:00,19.0,15.0,29.79,West,274,4.0,7.0,85,0.00,,,0.00,,2013-03-12 07:52:00,
2013-03-12 03:02:00,19.0,15.0,29.79,West,274,4.0,7.0,85,0.00,,,0.00,,2013-03-12 08:02:00,
2013-03-12 03:12:00,19.0,15.0,29.79,West,274,4.0,7.0,85,0.00,,,0.00,,2013-03-12 08:12:00,
2013-03-12 03:22:00,20.0,16.0,29.79,West,278,4.0,8.0,84,0.00,,,0.00,,2013-03-12 08:22:00,
2013-03-12 03:33:00,20.0,16.0,29.79,West,268,4.0,7.0,83,0.00,,,0.00,,2013-03-12 08:33:00,
2013-03-12 03:42:00,20.0,16.0,29.79,West,268,4.0,7.0,83,0.00,,,0.00,,2013-03-12 08:42:00,
2013-03-12 03:52:00,20.0,16.0,29.79,West,277,5.0,8.0,83,0.00,,,0.00,,2013-03-12 08:52:00,
2013-03-12 04:03:00,20.0,15.0,29.79,West,281,6.0,9.0,82,0.00,,,0.00,,2013-03-12 09:03:00,
2013-03-12 04:12:00,20.0,15.0,29.79,West,281,6.0,9.0,82,0.00,,,0.00,,2013-03-12 09:12:00,
2013-03-12 04:22:00,21.0,16.0,29.79,WNW,287,7.0,10.0,81,0.00,,,0.00,,2013-03-12 09:22:00,
2013-03-12 04:32:00,21.0,16.0,29.79,WNW,288,7.0,13.0,81,0.00,,,0.00,,2013-03-12 09:32:00,
2013-03-12 04:42:00,21.0,16.0,29.79,WNW,288,7.0,13.0,81,0.00,,,0.00,,2013-03-12 09:42:00,
2013-03-12 04:52:00,21.0,16.0,29.79,WNW,288,5.0,8.0,80,0.00,,,0.00,,2013-03-12 09:52:00,
2013-03-12 05:02:00,21.0,16.0,29.80,West,278,5.0,8.0,80,0.00,,,0.00,,2013-03-12 10:02:00,
2013-03-12 05:12:00,21.0,16.0,29.80,West,278,5.0,8.0,80,0.00,,,0.00,,2013-03-12 10:12:00,
2013-03-12 05:22:00,21.0,16.0,29.80,West,279,5.0,8.0,80,0.00,,,0.00,,2013-03-12 10:22:00,
2013-03-12 05:32:00,21.0,16.0,29.80,WNW,282,5.0,10.0,80,0.00,,,0.00,,2013-03-12 10:32:00,
2013-03-12 05:42:00,21.0,16.0,29.80,WNW,282,5.0,10.0,80,0.00,,,0.00,,2013-03-12 10:42:00,
2013-03-12 05:52:00,21.0,16.0,29.81,West,279,4.0,8.0,80,0.00,,,0.00,,2013-03-12 10:52:00,
2013-03-12 06:02:00,20.0,15.0,29.81,West,278,5.0,8.0,80,0.00,,,0.00,,2013-03-12 11:02:00,
2013-03-12 06:12:00,20.0,15.0,29.81,West,278,5.0,8.0,80,0.00,,,0.00,,2013-03-12 11:12:00,
2013-03-12 06:22:00,20.0,15.0,29.82,WNW,286,7.0,11.0,80,0.00,,,0.00,,2013-03-12 11:22:00,
2013-03-12 06:32:00,20.0,15.0,29.83,WNW,285,8.0,10.0,79,0.00,,,0.00,,2013-03-12 11:32:00,
2013-03-12 06:42:00,20.0,15.0,29.83,WNW,285,8.0,10.0,79,0.00,,,0.00,,2013-03-12 11:42:00,
2013-03-12 06:52:00,20.0,15.0,29.83,WNW,285,8.0,14.0,79,0.00,,,0.00,,2013-03-12 11:52:00,
2013-03-12 07:02:00,20.0,14.0,29.83,WNW,287,8.0,12.0,78,0.00,,,0.00,,2013-03-12 12:02:00,
2013-03-12 07:12:00,20.0,14.0,29.83,WNW,287,8.0,12.0,78,0.00,,,0.00,,2013-03-12 12:12:00,
2013-03-12 07:22:00,20.0,15.0,29.83,WNW,290,8.0,11.0,79,0.00,,,0.00,,2013-03-12 12:22:00,
2013-03-12 07:32:00,20.0,15.0,29.84,WNW,293,8.0,12.0,79,0.00,,,0.00,,2013-03-12 12:32:00,
2013-03-12 07:42:00,20.0,15.0,29.84,WNW,293,8.0,12.0,79,0.00,,,0.00,,2013-03-12 12:42:00,
2013-03-12 07:52:00,20.0,15.0,29.84,WNW,288,9.0,11.0,79,0.00,,,0.00,,2013-03-12 12:52:00,
2013-03-12 08:02:00,20.0,15.0,29.84,WNW,291,8.0,11.0,79,0.00,,,0.00,,2013-03-12 13:02:00,
2013-03-12 08:12:00,20.0,15.0,29.84,WNW,291,8.0,11.0,79,0.00,,,0.00,,2013-03-12 13:12:00,
2013-03-12 08:22:00,20.0,14.0,29.84,WNW,290,8.0,12.0,78,0.00,,,0.00,,2013-03-12 13:22:00,
2013-03-12 08:32:00,20.0,14.0,29.85,WNW,291,9.0,13.0,76,0.00,,,0.00,,2013-03-12 13:32:00,
2013-03-12 08:42:00,20.0,14.0,29.85,WNW,291,9.0,13.0,76,0.00,,,0.00,,2013-03-12 13:42:00,
2013-03-12 08:52:00,20.0,13.0,29.85,WNW,291,9.0,15.0,74,0.00,,,0.00,,2013-03-12 13:52:00,
2013-03-12 09:02:00,21.0,14.0,29.85,WNW,292,10.0,14.0,73,0.00,,,0.00,,2013-03-12 14:02:00,
2013-03-12 09:12:00,21.0,14.0,29.85,WNW,292,10.0,14.0,73,0.00,,,0.00,,2013-03-12 14:12:00,
2013-03-12 09:22:00,21.0,14.0,29.86,WNW,291,10.0,14.0,73,0.00,,,0.00,,2013-03-12 14:22:00,
2013-03-12 09:32:00,21.0,14.0,29.86,WNW,287,10.0,18.0,73,0.00,,,0.00,,2013-03-12 14:32:00,
2013-03-12 09:42:00,21.0,14.0,29.86,WNW,287,10.0,18.0,73,0.00,,,0.00,,2013-03-12 14:42:00,
2013-03-12 09:52:00,21.0,14.0,29.87,WNW,288,11.0,15.0,74,0.00,,,0.00,,2013-03-12 14:52:00,
2013-03-12 10:02:00,21.0,14.0,29.88,WNW,287,13.0,20.0,74,0.00,,,0.00,,2013-03-12 15:02:00,
2013-03-12 10:12:00,21.0,14.0,29.88,WNW,287,13.0,20.0,74,0.00,,,0.00,,2013-03-12 15:12:00,
2013-03-12 10:22:00,21.0,14.0,29.88,WNW,298,13.0,20.0,73,0.00,,,0.00,,2013-03-12 15:22:00,
2013-03-12 10:32:00,22.0,15.0,29.88,WNW,296,11.0,15.0,73,0.00,,,0.00,,2013-03-12 15:32:00,
2013-03-12 10:42:00,22.0,15.0,29.88,WNW,296,11.0,15.0,73,0.00,,,0.00,,2013-03-12 15:42:00,
2013-03-12 10:52:00,22.0,15.0,29.88,WNW,296,11.0,15.0,73,0.00,,,0.00,,2013-03-12 15:52:00,
2013-03-12 11:02:00,22.0,15.0,29.89,WNW,298,13.0,19.0,74,0.00,,,0.00,,2013-03-12 16:02:00,
2013-03-12 11:12:00,22.0,15.0,29.89,WNW,298,13.0,19.0,74,0.00,,,0.00,,2013-03-12 16:12:00,
2013-03-12 11:22:00,23.0,16.0,29.90,WNW,289,13.0,19.0,73,0.00,,,0.00,,2013-03-12 16:22:00,
2013-03-12 11:33:00,24.0,15.0,29.90,WNW,292,13.0,19.0,69,0.00,,,0.00,,2013-03-12 16:33:00,
2013-03-12 11:43:00,24.0,15.0,29.90,WNW,292,13.0,19.0,69,0.00,,,0.00,,2013-03-12 16:43:00,
2013-03-12 11:53:00,24.0,15.0,29.90,WNW,296,13.0,19.0,67,0.00,,,0.00,,2013-03-12 16:53:00,
2013-03-12 12:02:00,25.0,15.0,29.90,WNW,300,13.0,19.0,66,0.00,,,0.00,,2013-03-12 17:02:00,
2013-03-12 12:12:00,25.0,15.0,29.90,WNW,300,13.0,19.0,66,0.00,,,0.00,,2013-03-12 17:12:00,
2013-03-12 12:22:00,25.0,15.0,29.90,WNW,300,13.0,19.0,66,0.00,,,0.00,,2013-03-12 17:22:00,
2013-03-12 12:33:00,26.0,14.0,29.91,WNW,296,17.0,25.0,60,0.00,,,0.00,,2013-03-12 17:33:00,
2013-03-12 12:43:00,26.0,14.0,29.91,WNW,296,17.0,25.0,60,0.00,,,0.00,,2013-03-12 17:43:00,
2013-03-12 12:53:00,26.0,14.0,29.91,WNW,299,17.0,25.0,60,0.00,,,0.00,,2013-03-12 17:53:00,
2013-03-12 13:02:00,26.0,13.0,29.91,WNW,301,19.0,30.0,58,0.00,,,0.00,,2013-03-12 18:02:00,
2013-03-12 13:13:00,27.0,14.0,29.92,WNW,302,19.0,26.0,58,0.00,,,0.00,,2013-03-12 18:13:00,
2013-03-12 13:22:00,27.0,14.0,29.92,WNW,302,19.0,26.0,58,0.00,,,0.00,,2013-03-12 18:22:00,
2013-03-12 13:33:00,27.0,14.0,29.92,NW,314,17.0,25.0,58,0.00,,,0.00,,2013-03-12 18:33:00,
2013-03-12 13:42:00,27.0,14.0,29.92,NW,314,17.0,25.0,58,0.00,,,0.00,,2013-03-12 18:42:00,
2013-03-12 13:53:00,27.0,14.0,29.92,WNW,301,19.0,26.0,58,0.00,,,0.00,,2013-03-12 18:53:00,
2013-03-12 14:03:00,27.0,13.0,29.92,NW,311,19.0,27.0,56,0.00,,,0.00,,2013-03-12 19:03:00,
2013-03-12 14:13:00,27.0,13.0,29.92,NW,311,19.0,27.0,56,0.00,,,0.00,,2013-03-12 19:13:00,
2013-03-12 14:22:00,26.0,12.0,29.92,NW,304,18.0,29.0,55,0.00,,,0.00,,2013-03-12 19:22:00,
2013-03-12 14:33:00,28.0,13.0,29.92,WNW,297,19.0,27.0,52,0.00,,,0.00,,2013-03-12 19:33:00,
2013-03-12 14:43:00,28.0,13.0,29.92,WNW,297,19.0,27.0,52,0.00,,,0.00,,2013-03-12 19:43:00,
2013-03-12 14:53:00,28.0,12.0,29.92,NW,311,18.0,29.0,50,0.00,,,0.00,,2013-03-12 19:53:00,
2013-03-12 15:02:00,28.0,11.0,29.93,NW,314,19.0,29.0,49,0.00,,,0.00,,2013-03-12 20:02:00,
2013-03-12 15:12:00,28.0,11.0,29.93,NW,314,19.0,29.0,49,0.00,,,0.00,,2013-03-12 20:12:00,
2013-03-12 15:22:00,27.0,10.0,29.93,NW,312,20.0,28.0,49,0.00,,,0.00,,2013-03-12 20:22:00,
2013-03-12 15:32:00,28.0,12.0,29.93,NW,315,17.0,25.0,50,0.00,,,0.00,,2013-03-12 20:32:00,
2013-03-12 15:42:00,28.0,12.0,29.93,NW,315,17.0,25.0,50,0.00,,,0.00,,2013-03-12 20:42:00,
2013-03-12 15:53:00,28.0,12.0,29.93,NW,307,17.0,27.0,50,0.00,,,0.00,,2013-03-12 20:53:00,
2013-03-12 16:02:00,27.0,11.0,29.94,NW,314,18.0,28.0,50,0.00,,,0.00,,2013-03-12 21:02:00,
2013-03-12 16:12:00,27.0,11.0,29.94,NW,314,18.0,28.0,50,0.00,,,0.00,,2013-03-12 21:12:00,
2013-03-12 16:22:00,28.0,12.0,29.95,WNW,300,17.0,24.0,50,0.00,,,0.00,,2013-03-12 21:22:00,
2013-03-12 16:32:00,27.0,11.0,29.95,NW,323,16.0,25.0,50,0.00,,,0.00,,2013-03-12 21:32:00,
2013-03-12 16:43:00,27.0,11.0,29.95,NW,323,16.0,25.0,50,0.00,,,0.00,,2013-03-12 21:43:00,
2013-03-12 16:52:00,26.0,10.0,29.96,NNW,329,17.0,26.0,51,0.00,,,0.00,,2013-03-12 21:52:00,
2013-03-12 17:02:00,28.0,12.0,29.96,WNW,301,18.0,28.0,50,0.00,,,0.00,,2013-03-12 22:02:00,
2013-03-12 17:12:00,28.0,12.0,29.96,WNW,301,18.0,28.0,50,0.00,,,0.00,,2013-03-12 22:12:00,
2013-03-12 17:22:00,27.0,11.0,29.97,NW,313,18.0,25.0,51,0.00,,,0.00,,2013-03-12 22:22:00,
2013-03-12 17:33:00,27.0,12.0,29.98,NW,313,17.0,25.0,53,0.00,,,0.00,,2013-03-12 22:33:00,
2013-03-12 17:42:00,27.0,12.0,29.98,NW,313,17.0,25.0,53,0.00,,,0.00,,2013-03-12 22:42:00,
2013-03-12 17:52:00,26.0,11.0,29.98,NW,305,21.0,32.0,53,0.00,,,0.00,,2013-03-12 22:52:00,
2013-03-12 18:02:00,26.0,12.0,29.99,NW,313,20.0,27.0,56,0.00,,,0.00,,2013-03-12 23:02:00,
2013-03-12 18:12:00,26.0,12.0,29.99,NW,313,20.0,27.0,56,0.00,,,0.00,,2013-03-12 23:12:00,
2013-03-12 18:22:00,26.0,13.0,30.00,NW,308,20.0,29.0,57,0.00,,,0.00,,2013-03-12 23:22:00,
2013-03-12 18:34:00,26.0,14.0,30.01,NW,306,20.0,30.0,59,0.00,,,0.00,,2013-03-12 23:34:00,
2013-03-12 18:43:00,26.0,14.0,30.01,NW,306,20.0,30.0,59,0.00,,,0.00,,2013-03-12 23:43:00,
2013-03-12 18:52:00,25.0,14.0,30.02,NW,312,17.0,27.0,62,0.00,,,0.00,,2013-03-12 23:52:00,
2013-03-12 19:02:00,24.0,14.0,30.02,NW,311,19.0,26.0,66,0.00,,,0.00,,2013-03-13 00:02:00,
2013-03-12 19:12:00,24.0,14.0,30.02,NW,311,19.0,26.0,66,0.00,,,0.00,,2013-03-13 00:12:00,
2013-03-12 19:23:00,24.0,15.0,30.03,NW,311,15.0,23.0,67,0.00,,,0.00,,2013-03-13 00:23:00,
2013-03-12 19:33:00,24.0,14.0,30.04,NW,318,15.0,23.0,65,0.00,,,0.00,,2013-03-13 00:33:00,
2013-03-12 19:42:00,24.0,14.0,30.04,NW,318,15.0,23.0,65,0.00,,,0.00,,2013-03-13 00:42:00,
2013-03-12 19:53:00,24.0,14.0,30.04,NW,318,16.0,23.0,65,0.00,,,0.00,,2013-03-13 00:53:00,
2013-03-12 20:02:00,24.0,15.0,30.06,NW,315,14.0,19.0,67,0.00,,,0.00,,2013-03-13 01:02:00,
2013-03-12 20:12:00,24.0,15.0,30.06,NW,315,14.0,19.0,67,0.00,,,0.00,,2013-03-13 01:12:00,
2013-03-12 20:22:00,24.0,15.0,30.06,NW,313,13.0,19.0,67,0.00,,,0.00,,2013-03-13 01:22:00,
2013-03-12 20:32:00,24.0,15.0,30.07,NW,311,13.0,18.0,67,0.00,,,0.00,,2013-03-13 01:32:00,
2013-03-12 20:42:00,24.0,15.0,30.07,NW,311,13.0,18.0,67,0.00,,,0.00,,2013-03-13 01:42:00,
2013-03-12 20:53:00,24.0,15.0,30.07,NW,311,13.0,18.0,67,0.00,,,0.00,,2013-03-13 01:53:00,
2013-03-12 21:02:00,24.0,14.0,30.09,NW,321,15.0,24.0,64,0.00,,,0.00,,2013-03-13 02:02:00,
2013-03-12 21:12:00,24.0,14.0,30.09,NW,321,15.0,24.0,64,0.00,,,0.00,,2013-03-13 02:12:00,
2013-03-12 21:22:00,23.0,12.0,30.09,NW,321,13.0,19.0,63,0.00,,,0.00,,2013-03-13 02:22:00,
2013-03-12 21:32:00,23.0,13.0,30.10,NW,316,10.0,14.0,64,0.00,,,0.00,,2013-03-13 02:32:00,
2013-03-12 21:42:00,23.0,13.0,30.10,NW,316,10.0,14.0,64,0.00,,,0.00,,2013-03-13 02:42:00,
2013-03-12 21:52:00,23.0,12.0,30.10,NW,316,9.0,13.0,63,0.00,,,0.00,,2013-03-13 02:52:00,
2013-03-12 22:02:00,22.0,11.0,30.11,NW,314,9.0,12.0,61,0.00,,,0.00,,2013-03-13 03:02:00,
2013-03-12 22:12:00,22.0,11.0,30.11,NW,314,9.0,12.0,61,0.00,,,0.00,,2013-03-13 03:12:00,
2013-03-12 22:22:00,22.0,11.0,30.12,NW,315,8.0,10.0,61,0.00,,,0.00,,2013-03-13 03:22:00,
2013-03-12 22:32:00,22.0,10.0,30.13,NW,316,7.0,10.0,60,0.00,,,0.00,,2013-03-13 03:32:00,
2013-03-12 22:42:00,22.0,10.0,30.13,NW,316,7.0,10.0,60,0.00,,,0.00,,2013-03-13 03:42:00,
2013-03-12 22:52:00,21.0,10.0,30.13,WNW,302,6.0,9.0,61,0.00,,,0.00,,2013-03-13 03:52:00,
2013-03-12 23:02:00,20.0,9.0,30.13,WNW,293,4.0,6.0,63,0.00,,,0.00,,2013-03-13 04:02:00,
2013-03-12 23:13:00,20.0,9.0,30.13,WNW,293,4.0,6.0,63,0.00,,,0.00,,2013-03-13 04:13:00,
2013-03-12 23:22:00,20.0,10.0,30.13,WNW,288,6.0,8.0,64,0.00,,,0.00,,2013-03-13 04:22:00,
2013-03-12 23:32:00,20.0,10.0,30.14,WNW,289,7.0,9.0,64,0.00,,,0.00,,2013-03-13 04:32:00,
2013-03-12 23:42:00,20.0,10.0,30.14,WNW,289,7.0,9.0,64,0.00,,,0.00,,2013-03-13 04:42:00,
2013-03-12 23:52:00,20.0,10.0,30.14,WNW,293,7.0,11.0,65,0.00,,,0.00,,2013-03-13 04:52:00,